Probability
0 0 0 0 0 0 0 0 0 0 0 0 0 0 0 0 0 0 0 0 0 0 0 0 0 0 0 0 0 0 0 0 0 0 0 0 0 0 0 0 0 0 0
0 0 0 0 0 0 0 0 0 0 0 0 0 0 0 0 0 0 0 0 0 0 0 0 0 0 0 0 0 0 0 0 0 0 0 0 0 0 0 0 0 0 0
0 0 0 0 0 0 0 0 0 0 0 0 0 0 0 0 0 0 0 0 0 0 0 0 0 0 0 0 0 0 0 0 0 0 0 0 0 0 0 0 0 0 0
0 0 0 0 0 0 0 0 0 0 0 0 0 0 0 0 0 0 0 0 0 0 0 0 0 0 0 0 0 0 0 0 0 0 0 0 0 0 0 0 0 0 0
0 0 0 0 0 0 0 0 0 0 0 0 0 0 0 0 0 0 0 0 0 0 0 0 0 0 0 0 0 0 0 0 0 0 0 0 0 0 0 0 0 0 0
0 0 0 0 0 0 0 0 0 0 0 0 0 0 0 0 0 0 0 0 0 0 0 0 0 0 0 0 0 0 0 0 0 0 0 0 0 0 0 0 0 0 0
0 0 0 0 0 0 0 0 0 0 0 0 0 0 0 0 0 0 0 0 0 0 0 0 0 0 0 0 0 0 0 0 0 0 0 0 0 0 0 0 0 0 0
0 0 0 0 0 0 0 0 0 0 0 0 0 0 0 0 0 0 0 0 0 0 0 0 0 0 0 0 0 0 0 0 0 0 0 0 0 0 0 0 0 0 0
0 0 0 0 0 0 0 0 0 0 0 0 0 0 0 0 0 0 0 0 0 0 0 0 0 0 0 0 0 0 0 0 0 0 0 0 0 0 0 0 0 0 0
0 0 0 0 0 0 0 0 0 0 0 0 0 0 0 0 0 0 0 0 0 0 0 0 0 0 0 0 0 0 0 0 0 0 0 0 0 0 0 0 0 0 0
0 0 0 0 0 0 0 0 0 0 0 0 0 0 0 0 0 0 0 0 0 0 0 0 0 0 0 0 0 0 0 0 0 0 0 0 0 0 0 0 0 0 0
0 0 0 0 0 0 0 0 0 0 0 0 0 0 0 0 0 0 0 0 0 0 0 0 0 0 0 0 0 0 0 0 0 0 0 0 0 0 0 0 0 0 0
0 0 0 0 0 0 0 0 0 0 0 0 0 0 0 0 0 0 0 0 0 0 0 0 0 0 0 0 0 0 0 0 0 0 0 0 0 0 0 0 0 0 0
0 0 0 0 0 0 0 0 0 0 0 0 0 0 0 0 0 0 0 0 0 0 0 0 0 0 0 0 0 0 0 0 0 0 0 0 0 0 0 0 0 0 0
0 0 0 0 0 0 0 0 0 0 0 0 0 0 0 0 0 0 0 0 0 0 0 0 0 0 0 0 0 0 0 0 0 0 0 0 0 0 0 0 0 0 0
0 0 0 0 0 0 0 0 0 0 0 0 0 0 0 0 0 0 0 0 0 0 0 0 0 0 0 0 0 0 0 0 0 0 0 0 0 0 0 0 0 0 0
0 0 0 0 0 0 0 0 0 0 0 0 0 0 0 0 0 0 0 0 0 0 0 0 0 0 0 0 0 0 0 0 0 0 0 0 0 0 0 0 0 0 0
0 0 0 0 0 0 0 0 0 0 0 0 0 0 0 0 0 0 0 0 0 0 0 0 0 0 0 0 0 0 0 0 0 0 0 0 0 0 0 0 0 0 0
0 0 0 0 0 0 0 0 0 0 0 0 0 0 0 0 0 0 0 0 0 0 0 0 0 0 0 0 0 0 0 0 0 0 0 0 0 0 0 0 0 0 0
0 0 0 0 0 0 0 0 0 0 0 0 0 0 0 0 0 0 0 0 0 0 0 0 0 0 0 0 0 0 0 0 0 0 0 0 0 0 0 0 0 0 0
0 0 0 0 0 0 0 0 0 0 0 0 0 0 0 0 0 0 0 0 0 0 0 0 0 0 0 0 0 0 0 0 0 0 0 0 0 0 0 0 0 0 0
0 0 0 0 0 0 0 0 0 0 0 0 0 0 0 0 0 0 0 0 0 0 0 0 0 0 0 0 0 0 0 0 0 0 0 0 0 0 0 0 0 0 0
0 0 0 0 0 0 0 0 0 0 0 0 0 0 0 0 0 0 0 0 0 0 0 0 0 0 0 0 0 0 0 0 0 0 0 0 0 0 0 0 0 0 0
0 0 0 0 0 0 0 0 0 0 0 0 0 0 0 0 0 0 0 0 0 0 0 0 0 0 0 0 0 0 0 0 0 0 0 0 0 0 0 0 0 0 0
0 0 0 0 0 0 0 0 0 0 0 0 0 0 0 0 0 0 0 0 0 0 0 0 0 0 0 0 0 0 0 0 0 0 0 0 0 0 0 0 0 0 0
0 0 0 0 0 0 0 0 0 0 0 0 0 0 0 0 0 0 0 0 0 0 0 0 0 0 0 0 0 0 0 0 0 0 0 0 0 0 0 0 0 0 0
Wind_Speed
2 4 8 10 12 13 14 15 14 13 14 15 16 16 17 17 18 18 17 18 17 17 17 17 17 16 16 16 16 16 15 14 14 15 16 18 18 19 19 18 15 12 18
6 5 9 10 11 12 13 14 13 12 13 14 15 16 16 17 17 17 17 17 17 17 17 17 16 16 16 15 16 16 16 15 14 12 13 14 17 18 19 19 18 14 20
8 6 8 10 11 12 12 13 12 12 13 14 14 15 16 17 17 17 17 16 16 16 16 16 16 16 16 16 17 17 17 17 17 15 13 8 10 17 18 18 19 19 19
8 7 8 11 11 12 12 12 12 12 13 13 14 15 16 17 17 16 16 15 15 16 16 16 16 16 16 17 18 18 19 19 19 16 9 9 8 16 17 17 17 18 18
7 6 8 11 11 12 11 12 12 12 12 12 13 15 16 16 16 16 15 15 15 15 16 16 16 16 16 17 19 19 20 20 19 15 9 9 8 16 17 17 16 16 16
6 6 7 11 11 11 11 11 11 11 12 12 13 14 15 15 15 15 15 14 15 15 16 16 16 16 17 18 19 20 19 19 15 9 9 8 7 15 17 16 16 15 15
5 4 6 9 10 10 10 10 10 10 10 11 12 13 14 15 15 14 14 14 14 15 15 15 16 16 17 18 19 19 18 17 11 9 8 8 9 16 17 16 15 15 15
6 4 4 7 8 9 9 9 9 9 9 9 11 13 14 15 14 14 13 13 14 14 15 16 16 16 16 17 18 19 18 14 11 9 7 7 12 16 16 15 15 14 14
5 5 3 2 4 7 9 9 9 9 9 9 10 11 12 13 13 12 12 12 13 13 14 15 15 15 16 17 17 17 17 17 9 6 8 6 12 15 16 15 15 14 14
5 4 3 2 2 2 4 8 9 9 9 9 9 11 11 12 11 11 9 11 12 12 13 13 14 15 16 16 16 16 16 13 8 7 5 7 14 16 16 16 15 15 14
4 4 3 2 1 1 2 5 8 8 9 9 8 11 10 7 7 7 8 10 11 10 11 12 12 13 13 14 15 15 11 5 7 6 5 13 17 17 17 17 17 17 16
2 2 3 3 2 2 1 2 3 3 4 4 4 6 5 5 5 6 9 9 9 8 9 11 12 11 9 6 9 11 5 7 6 6 8 19 19 19 19 19 19 19 19
1 2 4 4 3 2 1 1 1 2 2 2 3 6 5 5 5 5 4 5 5 5 4 6 7 5 5 5 5 5 6 6 5 5 10 20 21 21 21 21 20 20 20
1 1 4 4 2 1 2 3 3 3 3 2 3 5 6 5 5 5 4 3 3 3 4 4 4 5 6 6 7 8 8 6 6 5 10 20 22 22 22 22 21 21 21
1 1 3 3 1 3 4 4 5 4 4 4 4 4 6 6 6 5 4 4 4 3 4 4 4 5 6 6 7 9 10 10 9 8 8 20 23 23 24 23 23 22 22
2 0 2 2 3 6 6 6 5 5 5 5 5 6 7 7 7 7 6 5 5 4 4 5 5 5 5 5 8 9 9 9 10 10 8 12 22 23 24 24 24 23 23
3 1 2 4 6 8 9 8 6 5 5 6 5 7 7 7 8 8 7 6 5 4 5 5 6 5 6 6 8 9 9 9 10 10 9 8 9 18 23 24 24 24 24
5 3 3 5 7 8 8 8 6 6 6 6 5 6 8 8 9 8 7 6 5 5 5 5 4 5 6 6 6 6 7 7 9 9 8 8 7 8 14 23 23 23 24
6 5 5 6 8 9 9 8 8 7 6 5 5 5 7 8 8 8 7 5 5 5 5 5 5 4 5 6 7 6 6 6 6 8 9 8 8 8 7 15 20 21 23
6 6 7 8 9 10 9 8 7 8 6 5 5 5 7 7 8 9 7 6 6 6 6 5 7 6 5 5 8 7 5 5 5 6 7 7 7 9 8 9 8 12 20
7 7 8 10 10 9 7 6 6 5 4 5 5 6 7 7 7 8 8 6 6 6 5 5 5 7 6 3 5 4 4 5 5 4 4 6 8 8 8 8 6 6 8
9 9 9 10 10 8 5 5 5 6 5 4 4 5 6 7 7 8 8 7 6 6 7 6 5 5 4 4 3 3 2 2 3 4 4 6 7 6 7 9 7 8 6
12 12 11 10 10 8 9 9 9 6 4 4 4 4 5 6 7 7 8 7 7 6 6 6 5 6 5 4 4 4 4 1 2 3 3 5 6 5 5 6 7 7 8
13 10 10 10 9 11 12 13 14 9 7 5 4 4 5 6 7 7 8 8 7 6 7 6 5 4 6 4 4 5 4 3 2 3 4 4 6 5 6 6 6 6 6
11 11 10 10 10 12 11 12 12 9 7 7 6 8 7 6 6 7 7 7 7 6 7 7 6 6 4 4 3 3 4 4 4 2 2 4 4 4 4 4 3 4 5
10 11 11 12 11 12 11 10 11 15 15 14 11 9 7 5 5 6 7 7 7 6 7 7 6 8 6 6 4 3 3 3 2 2 1 2 3 4 4 3 2 3 3
Wind_Direction
152 149 126 118 113 110 109 106 103 99 95 95 96 94 90 85 80 74 70 65 62 60 58 57 56 54 52 49 47 46 46 46 49 53 57 58 57 54 50 47 45 43 49
158 146 125 116 111 109 109 107 103 98 97 96 97 97 93 88 83 77 71 66 63 61 59 58 56 54 51 47 43 41 42 48 56 59 56 56 60 58 53 48 46 44 44
137 130 121 115 112 110 110 108 104 101 99 98 99 100 96 92 87 81 75 70 67 64 62 60 58 56 52 47 43 42 50 59 62 60 52 39 53 60 57 53 49 46 43
135 130 123 120 117 116 116 114 110 107 104 103 104 104 101 96 91 85 79 74 70 67 65 64 61 58 55 51 48 52 62 64 60 56 47 38 40 56 57 55 52 48 46
130 125 128 125 123 122 121 118 115 113 112 110 110 109 107 102 98 91 85 78 73 70 68 66 64 61 58 56 56 62 67 65 59 51 39 34 34 48 51 52 51 49 47
116 121 130 128 128 127 126 124 123 121 119 117 115 114 113 110 105 98 91 84 78 74 72 70 68 65 62 60 61 68 71 66 57 47 37 29 34 45 46 47 47 46 45
105 106 125 130 132 134 133 132 131 129 126 124 122 121 121 118 113 107 99 90 83 79 77 75 71 69 66 64 65 70 72 67 60 48 35 23 37 48 46 44 44 43 42
101 92 105 127 138 143 144 144 142 140 137 133 132 132 131 129 124 118 109 98 90 85 81 78 74 72 69 68 69 70 68 64 59 48 34 19 34 45 45 43 42 41 40
78 78 72 93 136 152 158 158 159 157 154 149 145 141 140 138 134 128 118 108 99 91 86 82 77 73 70 68 70 72 70 65 56 42 34 19 33 43 43 40 39 39 38
64 60 53 52 86 141 164 171 171 171 168 162 156 151 148 145 141 136 127 116 106 97 90 85 79 74 69 67 67 69 68 61 49 39 23 22 36 42 42 38 35 34 34
53 37 27 19 4 185 183 183 177 176 177 171 163 159 151 146 143 140 132 121 110 100 93 87 82 76 70 65 66 68 65 59 52 39 25 32 38 41 40 36 32 30 28
78 14 4 348 324 286 226 168 174 168 164 161 161 161 152 146 144 134 129 119 107 95 89 87 82 74 69 58 59 63 60 59 52 41 36 41 40 41 39 34 30 27 25
118 351 336 324 305 274 192 138 119 110 109 117 152 159 142 135 131 120 115 109 98 84 72 75 69 61 64 63 60 58 59 61 55 45 42 46 43 42 40 36 31 28 24
120 344 328 317 291 222 121 101 93 90 83 78 96 134 134 131 124 118 110 100 86 81 80 72 70 65 64 64 65 64 62 63 58 49 47 47 45 42 40 37 33 30 27
126 344 326 325 158 130 108 99 91 86 82 75 76 100 122 126 123 111 100 90 81 79 81 78 73 69 64 62 66 72 71 69 65 59 47 49 48 43 40 36 32 29 27
153 36 352 48 106 111 103 99 94 88 82 76 74 86 103 116 119 112 101 91 82 77 76 77 75 73 65 67 71 74 76 75 71 66 57 47 46 43 39 35 32 29 26
166 152 93 95 103 106 104 100 94 86 82 79 78 81 92 104 111 111 104 95 88 83 81 76 68 65 66 71 74 77 80 77 73 67 60 52 41 39 37 35 30 28 26
165 152 122 114 109 107 106 101 94 86 83 81 83 87 91 98 107 107 102 96 90 82 77 76 68 71 65 74 80 77 78 78 74 67 61 52 44 36 30 32 29 26 24
170 158 137 126 120 113 105 98 91 84 77 75 79 89 94 96 99 103 100 95 90 82 72 79 65 75 78 85 87 77 69 71 69 66 59 49 41 35 27 26 26 23 22
171 162 148 137 132 124 114 105 95 82 72 69 71 84 94 98 101 103 100 93 92 90 79 78 84 71 76 93 93 77 62 62 63 56 53 45 36 29 22 20 17 15 18
174 169 163 153 150 142 134 128 116 104 92 80 71 76 88 95 97 102 105 94 89 89 86 91 95 79 58 53 90 74 44 45 63 52 42 43 31 19 14 12 11 14 9
181 178 173 167 163 162 143 129 122 119 102 84 80 73 77 92 99 105 105 103 95 93 77 67 84 91 61 30 104 118 87 12 16 35 32 39 25 10 8 4 8 13 11
187 184 179 174 168 155 139 126 119 106 98 90 90 79 72 87 92 102 104 103 94 94 93 81 84 102 103 48 47 114 127 167 316 335 14 28 15 4 355 352 8 12 19
188 182 178 172 163 154 150 150 149 148 145 146 138 117 97 90 95 98 101 102 99 97 95 88 80 93 109 99 58 47 82 126 105 333 336 357 359 349 342 348 356 7 23
179 179 175 167 163 161 163 162 153 140 131 131 126 118 107 94 93 98 102 104 102 99 98 95 87 81 84 102 101 92 73 60 68 107 310 325 332 318 323 329 343 5 22
174 174 172 169 169 168 166 165 157 146 143 145 145 137 126 115 104 105 106 105 106 106 104 103 98 93 90 90 88 89 107 108 95 107 239 294 304 299 311 316 344 7 19